Location: *
(44.3526°S, 44.9014°W)
Time: 20:38:51
(UTC+00:00)

DMSP B5D1-3 - Pass Details

Date: 13 May 2025
Orbit: 759 x 773 km, 98.5° (Epoch: 17 June)

Event Time Altitude Azimuth Distance (km) Brightness Sun altitude
Rises 20:44:56 0° 19° (NNE) 3,231 7.7 -11.0°
Reaches altitude 10° 20:47:13 10° 20° (NNE) 2,314 6.9 -11.4°
Maximum altitude 20:52:19 79° 106° (ESE) 799 4.5 -12.3°
Drops below altitude 10° 20:57:31 10° 191° (SSW) 2,353 7.0 -13.2°
Sets 20:59:51 0° 192° (SSW) 3,289 7.8 -13.6°
